Regional Weather Roundup
Issued by NWS

Home | Current Version | Previous Version | Text Only | Print | Product List | Glossary On
Versions: 1 2 3 4 5 6 7 8 9 10 11 12 13 14 15 16 17 18 19 20 21 22 23 24 25 26 27 28 29 30 31 32 33 34 35 36 37 38 39 40 41 42 43 44 45 46 47 48 49 50
000
ASUS43 KTOP 040608
RWRKS

WEATHER ROUNDUP FOR KANSAS
NATIONAL WEATHER SERVICE GOODLAND KS
100 AM CDT TUE AUG 04 2015

NOTE:  "FAIR" INDICATES FEW OR NO CLOUDS BELOW 12,000 FEET WITH NO
SIGNIFICANT WEATHER AND/OR OBSTRUCTIONS TO VISIBILITY.

KSZ001>006-013>018-027>032-041>047-040700-
NORTHWEST KANSAS

CITY           SKY/WX    TMP DP  RH WIND       PRES   REMARKS
GOODLAND       MOCLDY    68  59  73 CALM      30.03R
6HR MIN TEMP:  68; 6HR MAX TEMP:  81;

HAYS           CLOUDY    75  63  64 S8        29.95R
HILL CITY      MOCLDY    77  67  71 S6        29.95R
6HR MIN TEMP:  77; 6HR MAX TEMP:  92;

RUSSELL        CLOUDY    78  68  71 S8        29.93R
6HR MIN TEMP:  77; 6HR MAX TEMP:  91;

$$

KSZ061>065-074>080-084>089-040700-
SOUTHWEST KANSAS

CITY           SKY/WX    TMP DP  RH WIND       PRES   REMARKS
DODGE CITY     CLOUDY    73  66  78 S9        29.97R
6HR MIN TEMP:  73; 6HR MAX TEMP:  85;

ELKHART          N/A     67  59  76 W12         N/A
GARDEN CITY    CLOUDY    74  67  78 S6        29.97R
6HR MIN TEMP:  74; 6HR MAX TEMP:  85;

GREAT BEND     CLOUDY    75  66  73 S8        29.94R
LIBERAL        CLOUDY    73  66  78 S6          N/A
PRATT          CLOUDY    77  64  65 CALM      29.97R
$$

KSZ066>073-081>083-090>101-040700-
SOUTHEAST KANSAS

CITY           SKY/WX    TMP DP  RH WIND       PRES   REMARKS
CHANUTE        CLEAR     72  67  84 S7        29.95R
6HR MIN TEMP:  72; 6HR MAX TEMP:  89;

COFFEYVILLE    CLEAR     72  68  87 SE3       29.93F
6HR MIN TEMP:  72; 6HR MAX TEMP:  91;

HUTCHINSON     CLOUDY    78  67  68 S7        29.94S
6HR MIN TEMP:  78; 6HR MAX TEMP:  91;

MEDICINE LODGE   N/A     77  70  79 SE8       29.93S
NEWTON         CLOUDY    75  64  69 S7        29.97S
PARSONS        CLEAR     68  68 100 CALM      29.95S
6HR MIN TEMP:  68; 6HR MAX TEMP:  89;

WICHITA INTL   CLOUDY    76  68  76 S5        29.93F
6HR MIN TEMP:  76; 6HR MAX TEMP:  89;

WICHITA JABRA  CLOUDY    76  68  76 S6        29.94F
6HR MIN TEMP:  76; 6HR MAX TEMP:  89;

WICHITA MCCONL CLOUDY    77  65  67 S6        29.94F
$$

KSZ007>012-019>026-033>040-048>060-102>105-040700-
NORTHEAST KANSAS

CITY           SKY/WX    TMP DP  RH WIND       PRES   REMARKS
CONCORDIA      MOCLDY    74  72  93 E5        29.93S
6HR MIN TEMP:  74; 6HR MAX TEMP:  88;

EMPORIA        PTCLDY    74  68  81 S8        29.93F
6HR MIN TEMP:  74; 6HR MAX TEMP:  88;

LAWRENCE       CLEAR     74  70  87 CALM      29.94R
6HR MIN TEMP:  74; 6HR MAX TEMP:  90;

MANHATTAN      PTCLDY    76  73  91 NE3       29.92S
6HR MIN TEMP:  76; 6HR MAX TEMP:  92;

MARYSVILLE     PTCLDY    73  70  88 E9        29.94F
OLATHE IND     CLEAR     76  70  82 E7        29.96R
6HR MIN TEMP:  76; 6HR MAX TEMP:  91;

OLATHE EXE     CLEAR     75  70  84 CALM      29.95R
6HR MIN TEMP:  75; 6HR MAX TEMP:  90;

SALINA         MOCLDY    78  69  73 S7        29.92S
6HR MIN TEMP:  78; 6HR MAX TEMP:  92;

TOPEKA BILLARD CLEAR     75  71  87 E5        29.93R
6HR MIN TEMP:  75; 6HR MAX TEMP:  91;

TOPEKA FORBES  CLEAR     77  70  79 CALM      29.93S
6HR MIN TEMP:  77; 6HR MAX TEMP:  91;

$$



USA.gov is the U.S. government's official web portal to all federal, state and local government web resources and services.